Regional Weather Roundup
Issued by NWS State College, PA

Home | Current Version | Previous Version | Text Only | Print | Product List | Glossary On
Versions: 1 2 3 4 5 6 7 8 9 10 11 12 13 14 15 16 17 18 19 20 21 22 23 24 25 26 27 28 29 30 31 32 33 34 35 36 37 38 39 40 41 42 43 44 45 46 47 48 49 50
000
ASUS41 KCTP 161203
RWRCTP

REGIONAL WEATHER ROUNDUP
NATIONAL WEATHER SERVICE STATE COLLEGE PA
700 AM EST SAT DEC 16 2017

Note: "fair" indicates few or no clouds below 12,000 feet with no
significant weather and/or obstructions to visibility.

* = STATION THAT DOES NOT REPORT PRECIPITATION /E.G. RAIN...SNOW...ETC/
    THUNDER OR FOG.

PAZ002>004-007>009-013>016-020>023-029>032-161300-
WESTERN PENNSYLVANIA

CITY           SKY/WX    TMP DP  RH WIND       PRES   REMARKS
ERIE           LGT SNOW  29  25  85 SW12G21   29.92R FOG
MEADVILLE      LGT SNOW  26  24  92 SW12      29.93R FOG
FRANKLIN*      LGT SNOW  26  23  88 SW15G22   29.93S FOG     WCI  14
NEW CASTLE     LGT SNOW  28  26  92 SW7       30.00R FOG
BEAVER COUNTY  NOT AVBL
BUTLER*        LGT SNOW  27  24  89 SW14G20   30.00R FOG
PITTSBURGH INT LGT SNOW  30  24  78 SW13      30.01S
PITTSBURGH     FLURRIES  27  22  81 SW13      30.01R
INDIANA*       CLOUDY    27  23  86 W16G23    30.02R WCI  14
LATROBE        FLURRIES  28  23  80 SW14G29   30.03R
WASHINGTON CO* FLURRIES  30  23  75 SW9       30.05F
$$

PAZ004>006-010>012-017>019-024>028-033>037-041-042-045-046-049>053-161300-
CENTRAL PENNSYLVANIA

CITY           SKY/WX    TMP DP  RH WIND       PRES   REMARKS
BRADFORD       LGT SNOW  23  20  88 W8        29.84R FOG     WCI  14
DUBOIS         LGT SNOW  24  19  81 SW20G26   29.91R WCI  10
CLEARFIELD     LGT SNOW  26  21  81 SW10G21   29.93R
JOHNSTOWN      LGT SNOW  24  20  84 SW17G26   29.93R FOG     WCI  11
ALTOONA        CLOUDY    30  19  63 W20G26    29.96R
STATE COLLEGE  CLOUDY    27  19  74 SW13      29.95R
WILLIAMSPORT   CLOUDY    19  12  74 E5        29.96S WCI  12
SELINSGROVE    CLOUDY    28  18  66 SW5       30.00R
FT INDIANTOWN  MOCLDY    25  15  65 W5        30.02R
CAPITAL CITY   MOCLDY    30  15  53 SW9       30.03R
HARRISBURG     MOCLDY    30  17  58 SW14      30.03R
YORK           CLEAR     29  16  58 SW10      30.04R
$$

PAZ038>040-043-044-047-048-054-055-060>062-067>071-161300-
EASTERN PENNSYLVANIA

CITY           SKY/WX    TMP DP  RH WIND       PRES   REMARKS
SCRANTON       MOCLDY    20  12  71 SW6       29.94R WCI  12
MOUNT POCONO   CLEAR     16  12  84 W14       29.86R WCI   2
ALLENTOWN      PTCLDY    23  14  68 W10       30.01R WCI  12
QUAKERTOWN*    SUNNY     21  16  79 SW5       30.02R WCI  15
READING        CLEAR     22  16  78 S3        30.03R
LANCASTER      PTCLDY    26  18  71 SW8       30.05R
COATESVILLE    SUNNY     21  18  86 VRB6      30.06R WCI  14
POTTSTOWN      MOCLDY    20  16  84 S3        30.06R
BLUE BELL      CLEAR     18  14  86 SW3       30.08R
DOYLESTOWN     CLEAR     19  14  81 SW6       30.02R WCI  11
WILLOW GROVE   NOT AVBL
NORTH PHILA    CLEAR     27  17  66 SW10      30.08R
PHILADELPHIA   PTCLDY    25  19  78 SW12      30.10R WCI  14
$$



USA.gov is the U.S. government's official web portal to all federal, state and local government web resources and services.